"Pseudo-MPEC" for P10Ldcm

Created 2019 Jan 17 15:18:24 UT using Find_Orb

Click here for an explanation of pseudo-MPECs

 
 Astrometry: 
     P10Ldcm  C2019 01 08Q7q_?#W!]J:fbL`b*@lv8KV!2Zy-OAstrometryo9@fx_C/;3UFuF51
     P10Ldcm  C2019 01 08?/r@u,sunj-v1_\ToQ5\,[2hBJ.#T$BcQ8]i3QlW8hhx$wGU2]GoF51
     P10Ldcm  C2019 01 08Khj^(:N;E@s^b;6redacted;g87B$t8Ljw;cDb7oP'Li0fq%ekx#F51
     P10Ldcm  C2019 01 08=1%U]I,R2PnIFE+Lh;l_@WPs[]gNXMYu88*Oa7(sgvwgu(m=w_qqF51
     P10Ldcm ^C2019 01 10.39520708 57 17.935+33 29 52.94   ~1AKI 21.90GVNEOCP568
     P10Ldcm ^C2019 01 10.39592108 57 17.804+33 29 55.48   ~1AKI 21.93GVNEOCP568
     P10Ldcm ^C2019 01 10.39687408 57 17.671+33 29 57.96   ~1AKI 21.85GVNEOCP568
     P10Ldcm  C2019 01 139mQQ+5'FL/tn_q55S)R*B/!9oFE91ZoJ'F3\]3bl-0+XFt1)M;%6F51
     P10Ldcm  C2019 01 13(RnSZo/GQlZm8h$wF$r2aclickE'f[x_@oXsx0h+D]:kh`L[xn9uF51
     P10Ldcm  C2019 01 13.E',*VuTM=9KTS=BmCXk7K@Qih2G4@lQr\mmjt1)Fe6=b)`tNwEoF51
     P10Ldcm  C2019 01 14Z6A;g9Q5-Bcr%/7SyfMN=MwFo4:_9Ov[j=tA,[=pSCYk9`D8L@DSF51
     P10Ldcm  C2019 01 14y38Z#/Ty62C9EherehR+3E29e0l]TnB8VALnU)$0(@E,w^Qfk7S6F51
     P10Ldcm  C2019 01 14A,iYc0_1fi5Pq/*po[/!GljoFy\^l#E[6.Evse?cojLSaB5Jw\JiF51
     P10Ldcm  C2019 01 14v_Qutg]t=V96?/'lBhQlehpTYdlpWfF==Ak^$eV[YlThM^oh6;SXF51
     P10Ldcm ^C2019 01 15.36748408 44 33.873+37 14 17.60   ~1FKI 21.63GVNEOCP568
     P10Ldcm ^C2019 01 15.36843308 44 33.696+37 14 20.35   ~1FKI 21.56GVNEOCP568
     P10Ldcm ^C2019 01 15.36938608 44 33.517+37 14 23.07   ~1FKI 21.64GVNEOCP568
     P10Ldcm  C2019 01 17S?TJ6O;OT[+i:Qw\Yx@(f0DthU[Y+5A^.ObE$forWt28Y!,dyBCwV06
     P10Ldcm  C2019 01 17JYs)d.Jpyd;XBij4FugyqdP4jmpn+@(X#l@(I6[3R9/u^DR*ss)jV06
     P10Ldcm  C2019 01 17P1IXC%c.Nj;,]K[Ao3KB,.2DAELHtV3w5W$n@2BtV]:.b5WO;y\IV06
     P10Ldcm  C2019 01 17`bL]Q];E$(gx^%YRguBEJ]x``dfQPexplanationrD65KM@.iffqV06

Station data:
(568) Mauna Kea  (N19.826116 W155.472200)  US/Hawaii.
(F51) Pan-STARRS 1, Haleakala  (N20.707235 W156.255910)  US/Hawaii.
   Observers N. Primak, A. Schultz, S. Watters, J. Thiel, T. Goggia. Measurer
   PS1 Science Consortium. 1.8-m Ritchey-Chrétien + CCD.
(V06) Catalina Sky Survey-Kuiper  (N32.416847 W110.732550)  US/Arizona.
   Observers B. M. Africano, E. J. Christensen, G. A. Farneth, D. C. Fuls, A.
   R. Gibbs, A. D. Grauer, H. Groeller, J. A. Johnson, R. A. Kowalski, S. M.
   Larson, G. J. Leonard, R. L. Seaman, F. C. Shelly. 1.55-m reflector + CCD.

Orbital elements:  P10Ldcm
   Perihelion 2019 May 14.640192 +/- 0.0337 TT = 15:21:52 (JD 2458618.140192)
Epoch 2019 Jan 17.0 TT = JDT 2458500.5   Earth MOID: 0.2017   Ve: 0.0917
M 255.02088885 +/- 0.06             Ma: 0.0658                AutoNEOCP
n   0.89237452 +/- 0.000332         Peri.  168.59220 +/- 0.021
a   1.06849199 +/- 0.000265         Node    94.79422 +/- 0.028
e   0.4479830 +/- 0.000598          Incl.   13.56934 +/- 0.027
P   1.10/403.41d           H 22.6   G  0.15   U  7.4  
q 0.58982566 +/- 0.000492    Q 1.54715832 +/- 0.00102
From 21 observations 2019 Jan. 8-17; mean residual 0".25
Residuals in arcseconds: 
190108 F51  .05-  .03+    190113 F51  .24+  .31-    190115 568  .07-  .10+    
190108 F51  .07-  .22+    190113 F51  .13-  .23+    190115 568  .07-  .13+    
190108 F51  .02-  .04+    190113 F51  .21+  .04+    190115 568  .08-  .12+    
190108 F51  .00   .06+    190114 F51  .06+  .10-    190117 V06  .29-  .55+    
190110 568  .35+  .59-    190114 F51  .34-  .21+    190117 V06  .48+  .23-    
190110 568  .06-  .08+    190114 F51  .30-  .18+    190117 V06  .44+  .09+    
190110 568  .08-  .05+    190114 F51  .17+  .28-    190117 V06  .42-  .58-    

Ephemerides (geocentric):
Date (UTC) HH   RA              Dec         delta   r     elong  mag " sig PA
---- -- -- --  -------------   -----------  ------ ------ -----  --- ---- ---
2019 01 17 15  08 37 22.469   +39 01 22.21  .37886 1.3455 159.7 21.9 .153  46
2019 01 17 16  08 37 14.005   +39 03 22.05  .37866 1.3453 159.7 21.9 .158  46
2019 01 17 17  08 37 05.522   +39 05 21.92  .37846 1.3451 159.7 21.9 .162  46
2019 01 17 18  08 36 57.020   +39 07 21.83  .37826 1.3449 159.7 21.9 .167  46
2019 01 17 19  08 36 48.498   +39 09 21.77  .37806 1.3447 159.7 21.9 .172  45
2019 01 17 20  08 36 39.957   +39 11 21.74  .37787 1.3445 159.7 21.9 .177  45
2019 01 17 21  08 36 31.397   +39 13 21.75  .37767 1.3443 159.6 21.9 .182  45
2019 01 17 22  08 36 22.817   +39 15 21.78  .37747 1.3441 159.6 21.9 .187  45
2019 01 17 23  08 36 14.218   +39 17 21.85  .37728 1.3439 159.6 21.9 .192  44
2019 01 18 00  08 36 05.599   +39 19 21.95  .37708 1.3437 159.6 21.9 .197  44
2019 01 18 01  08 35 56.961   +39 21 22.08  .37689 1.3435 159.6 21.9 .202  44
2019 01 18 02  08 35 48.303   +39 23 22.23  .37669 1.3433 159.6 21.9 .207  44
2019 01 18 03  08 35 39.626   +39 25 22.42  .37650 1.3431 159.6 21.9 .212  44
2019 01 18 04  08 35 30.930   +39 27 22.63  .37630 1.3429 159.6 21.9 .217  43
2019 01 18 05  08 35 22.214   +39 29 22.87  .37611 1.3426 159.6 21.9 .223  43
2019 01 18 06  08 35 13.478   +39 31 23.14  .37592 1.3424 159.6 21.9 .228  43
2019 01 18 07  08 35 04.723   +39 33 23.44  .37572 1.3422 159.5 21.9 .233  43
2019 01 18 08  08 34 55.948   +39 35 23.76  .37553 1.3420 159.5 21.9 .239  43
2019 01 18 09  08 34 47.154   +39 37 24.11  .37534 1.3418 159.5 21.9 .244  43
2019 01 18 10  08 34 38.340   +39 39 24.48  .37515 1.3416 159.5 21.9 .250  42
2019 01 18 11  08 34 29.507   +39 41 24.88  .37496 1.3414 159.5 21.9 .255  42
2019 01 18 12  08 34 20.654   +39 43 25.30  .37477 1.3412 159.5 21.9 .261  42
2019 01 18 13  08 34 11.781   +39 45 25.75  .37458 1.3410 159.5 21.9 .266  42
2019 01 18 14  08 34 02.889   +39 47 26.21  .37439 1.3408 159.5 21.9 .272  42
2019 01 18 15  08 33 53.976   +39 49 26.70  .37420 1.3406 159.4 21.9 .278  41
2019 01 18 16  08 33 45.045   +39 51 27.22  .37401 1.3404 159.4 21.9 .284  41
2019 01 18 17  08 33 36.093   +39 53 27.75  .37382 1.3402 159.4 21.9 .289  41
2019 01 18 18  08 33 27.122   +39 55 28.30  .37364 1.3400 159.4 21.9 .295  41
2019 01 18 19  08 33 18.131   +39 57 28.88  .37345 1.3398 159.4 21.9 .301  41
2019 01 18 20  08 33 09.120   +39 59 29.47  .37326 1.3396 159.4 21.9 .307  41
2019 01 18 21  08 33 00.090   +40 01 30.09  .37308 1.3394 159.3 21.9 .313  40
2019 01 18 22  08 32 51.039   +40 03 30.72  .37289 1.3392 159.3 21.9 .319  40
2019 01 18 23  08 32 41.969   +40 05 31.37  .37270 1.3390 159.3 21.9 .325  40
2019 01 19 00  08 32 32.879   +40 07 32.04  .37252 1.3388 159.3 21.9 .331  40
2019 01 19 01  08 32 23.769   +40 09 32.72  .37233 1.3386 159.3 21.9 .337  40
2019 01 19 02  08 32 14.640   +40 11 33.43  .37215 1.3384 159.3 21.9 .344  40
2019 01 19 03  08 32 05.490   +40 13 34.14  .37197 1.3382 159.2 21.9 .350  39
2019 01 19 04  08 31 56.321   +40 15 34.88  .37178 1.3380 159.2 21.9 .356  39
2019 01 19 05  08 31 47.131   +40 17 35.62  .37160 1.3378 159.2 21.9 .363  39
2019 01 19 06  08 31 37.922   +40 19 36.39  .37142 1.3376 159.2 21.9 .369  39
2019 01 19 07  08 31 28.693   +40 21 37.16  .37124 1.3373 159.2 21.9 .375  39
2019 01 19 08  08 31 19.443   +40 23 37.95  .37105 1.3371 159.1 21.9 .382  39
2019 01 19 09  08 31 10.174   +40 25 38.75  .37087 1.3369 159.1 21.9 .388  38
2019 01 19 10  08 31 00.885   +40 27 39.56  .37069 1.3367 159.1 21.9 .395  38
2019 01 19 11  08 30 51.576   +40 29 40.39  .37051 1.3365 159.1 21.9 .402  38
2019 01 19 12  08 30 42.247   +40 31 41.22  .37033 1.3363 159.1 21.9 .408  38
2019 01 19 13  08 30 32.897   +40 33 42.07  .37015 1.3361 159.0 21.9 .415  38
2019 01 19 14  08 30 23.528   +40 35 42.92  .36997 1.3359 159.0 21.9 .422  38